Home > Weather > Olsztyn > Past weeks

Flag for Poland Past Weather in Olsztyn, Poland — Yesterday and Last 2 Weeks

Now
71 °F

Lots of rain. Cloudy.


Feels Like: 70 °F
Forecast: 57 / 74 °F
Wind: 6 mph from Northwest

Location: Ketrzyn

Current Time: Jun 26, 2016 at 3:59:09 PM

Latest Report: Jun 26, 2016 at 3:00 PM


Visibility: 4 mi

Pressure: 29.88 "Hg

Humidity: 84%

Dew Point: 66 °F

Location of OlsztynLocation

Past Weather in Olsztyn — Graph

°F

Olsztyn Temperature Yesterday

Maximum temperature yesterday: 89 °F (at 1:00 PM)
Minimum temperature yesterday: 68 °F (at 4:00 AM)
Average temperature yesterday: 80 °F

High & Low Weather Summary for the Past Weeks

 TemperatureHumidityPressure
High90 °F (Jun 26, 1:00 PM)98% (Jun 21, 4:00 AM)30.33 "Hg (Jun 21, 4:00 AM)
Low39 °F (Jun 12, 4:00 AM)37% (Jun 13, 5:00 PM)29.38 "Hg (Jun 17, 1:00 PM)
Average65 °F71%29.92 "Hg
* Reported Jun 11 2:00 PM — Jun 26 2:00 PM, Olsztyn, Weather by CustomWeather, © 2016

Note: Actual official high and low records may vary slightly from our data, if they occured in-between our weather recording intervals... More about our weather records

Advertising

Olsztyn Weather History for the Previous 24 Hours

Scroll right to see more
 ConditionsComfort  
Time TempWeatherWind HumidityBarometerVisibility
2:00 PM
Sun, Jun 26
90 °FHot.3 mph48%29.82 "Hg13 mi
1:00 PM90 °FHot.2 mph48%29.86 "Hg14 mi
12:00 PM88 °FHot.3 mph54%29.87 "Hg14 mi
11:00 AM87 °FWarm.6 mph57%29.88 "Hg15 mi
10:00 AM85 °FWarm.6 mph62%29.88 "Hg11 mi
9:00 AM82 °FWarm.5 mph67%29.87 "Hg13 mi
8:00 AM78 °FWarm.6 mph74%29.87 "Hg15 mi
7:00 AM75 °FMild.3 mph77%29.88 "Hg14 mi
6:00 AM73 °FMild.5 mph81%29.88 "Hg14 mi
5:00 AM71 °FMild.5 mph88%29.85 "Hg9 mi
4:00 AM69 °FMild.3 mph91%29.88 "Hg7 mi
3:00 AM71 °FMild.1 mph83%29.90 "Hg12 mi
2:00 AM73 °FMild.5 mph78%29.91 "Hg12 mi
1:00 AM74 °FMild.3 mph77%29.89 "Hg15 mi
12:00 AM76 °FMild.6 mph72%29.89 "Hg16 mi
11:00 PM
Sat, Jun 25
77 °FMild.5 mph69%29.89 "Hg14 mi
10:00 PM78 °FWarm.5 mph65%29.89 "Hg12 mi
9:00 PM80 °FWarm.5 mph61%29.88 "Hg16 mi
8:00 PM83 °FWarm.8 mph55%29.88 "Hg16 mi
7:00 PM85 °FWarm.8 mph51%29.89 "Hg16 mi
6:00 PM87 °FWarm.9 mph45%29.90 "Hg16 mi
5:00 PM87 °FWarm.8 mph48%29.90 "Hg18 mi
4:00 PM86 °FWarm.8 mph47%29.93 "Hg19 mi
3:00 PM87 °FWarm.8 mph50%29.94 "Hg17 mi
Weather by CustomWeather, © 2016

See weather overviewHow to use our weather pages